Simultaneous Nadir Overpasses (SNOs) Predictions

Prediction of SNOs between GOES-17 and NPP Satellite Orbit:

Table of predicted SNOs for the next 14.0 days since TLE Epoch: 3/23/2024
Index Date Time (GOES-17) GOES-17 Lat,Lon NPP Lat,Lon Distance(km) Time Diff (sec)
1 03/24/2024 08:33:30 -0.00,-104.69 0.46,-106.65 223.47 80
2 03/25/2024 08:12:06 -0.00,-104.69 -0.57,-102.12 292.55 80
3 03/26/2024 20:34:04 0.00,-104.67 -0.64,-107.43 315.23 80
4 03/27/2024 20:18:00 0.00,-104.67 0.39,-102.91 200.83 80
5 03/29/2024 08:39:48 0.00,-104.69 0.81,-108.18 397.82 80
6 03/30/2024 08:18:25 0.00,-104.69 -0.23,-103.66 117.90 80
7 03/31/2024 20:40:22 -0.01,-104.66 -0.97,-108.97 490.55 80
8 04/01/2024 20:24:18 -0.01,-104.66 0.02,-104.43 25.22 80
9 04/04/2024 08:27:23 0.02,-104.67 0.12,-105.19 58.25 80
10 04/05/2024 08:05:58 0.02,-104.67 -0.87,-100.65 457.35 80
